FW0983 Weather Reports


time (UTC)temp
C
wind
direction
speed
KPH
gust
KPH
rain 1hr
cm
rain 24hr
cm
rain mn
cm
humidity
%
barometer
mb
20260510204544 23 19 8.0 17.7 0.00 0.00 0.00 63 1016.8
20260510203032 23 5 9.7 22.5 0.00 0.00 0.00 64 1017.1
20260510201531 23 329 6.4 17.7 0.00 0.00 0.00 64 1017.0
20260510200029 23 351 8.0 20.9 0.00 0.00 0.00 65 1017.0
20260510194530 24 23 9.7 22.5 0.00 0.00 0.00 66 1017.1
20260510193028 23 352 9.7 24.1 0.00 0.00 0.00 66 1017.0
20260510191531 23 338 6.4 19.3 0.00 0.00 0.00 67 1016.9
20260510190037 23 335 8.0 19.3 0.00 0.00 0.00 67 1016.8
20260510184529 24 37 4.8 20.9 0.00 0.00 0.00 68 1016.9
20260510183037 24 44 6.4 16.1 0.00 0.00 0.00 68 1016.8
20260510181542 24 28 6.4 14.5 0.00 0.00 0.00 68 1016.7
20260510180033 24 80 4.8 12.9 0.00 0.00 0.00 69 1016.8
20260510174528 24 24 4.8 16.1 0.00 0.00 0.00 69 1016.7
20260510173031 24 95 4.8 16.1 0.00 0.00 0.00 69 1016.6
20260510171530 24 51 1.6 16.1 0.00 0.00 0.00 70 1016.6
20260510170030 23 342 9.7 20.9 0.00 0.00 0.00 70 1016.7
20260510164537 23 36 9.7 17.7 0.00 0.00 0.00 71 1017.0
20260510163030 23 355 6.4 14.5 0.00 0.00 0.00 72 1016.7
20260510161529 23 19 3.2 11.3 0.00 0.00 0.00 72 1016.7
20260510160032 23 346 4.8 11.3 0.00 0.00 0.00 73 1016.7
20260510154532 22 360 3.2 16.1 0.00 0.00 0.00 73 1016.5
20260510153040 22 59 0.0 3.2 0.00 0.00 0.00 73 1016.6
20260510151532 21 118 1.6 4.8 0.00 0.00 0.00 73 1016.5
20260510150028 21 0 0.0 0.0 0.00 0.00 0.00 74 1016.3
20260510144541 20 0 0.0 6.4 0.00 0.00 0.00 74 1016.0
20260510143030 20 148 1.6 4.8 0.00 0.00 0.00 74 1015.8
20260510141530 19 134 1.6 6.4 0.00 0.00 0.00 73 1015.7
20260510140030 18 149 3.2 11.3 0.00 0.00 0.00 73 1015.6
20260510134528 18 161 1.6 6.4 0.00 0.00 0.00 73 1015.7
20260510133028 17 9 1.6 4.8 0.00 0.00 0.00 73 1015.3
20260510131529 17 0 0.0 0.0 0.00 0.00 0.00 73 1015.1
20260510130029 16 0 0.0 0.0 0.00 0.00 0.00 73 1015.2
20260510124530 16 0 0.0 0.0 0.00 0.00 0.00 72 1015.3
20260510123032 15 9 0.0 3.2 0.00 0.00 0.00 72 1015.3
20260510121529 15 0 0.0 1.6 0.00 0.00 0.00 72 1015.1
20260510120033 15 9 1.6 4.8 0.00 0.00 0.00 71 1015.1
20260510114532 15 0 0.0 0.0 0.00 0.00 0.00 70 1015.0
20260510113030 15 0 0.0 6.4 0.00 0.00 0.00 70 1015.0
20260510111528 15 360 1.6 4.8 0.00 0.00 0.00 69 1014.8
20260510110035 15 0 0.0 0.0 0.00 0.00 0.00 69 1014.4
20260510104530 14 0 0.0 0.0 0.00 0.00 0.00 68 1013.9
20260510103037 15 0 0.0 0.0 0.00 0.00 0.00 68 1013.5
20260510101527 15 0 0.0 0.0 0.00 0.00 0.00 68 1013.3
20260510100033 15 0 0.0 0.0 0.00 0.00 0.00 67 1013.4
20260510094529 15 0 0.0 4.8 0.00 0.00 0.00 67 1013.2
20260510093028 15 0 0.0 0.0 0.00 0.00 0.00 66 1013.1
20260510091528 15 180 0.0 3.2 0.00 0.00 0.00 66 1013.3
20260510090034 15 180 0.0 4.8 0.00 0.00 0.00 66 1013.2
20260510084528 15 0 0.0 0.0 0.00 0.00 0.00 64 1012.8
20260510083036 16 0 0.0 1.6 0.00 0.00 0.00 64 1012.6
20260510081531 16 154 0.0 3.2 0.00 0.00 0.00 63 1012.4
20260510080029 16 0 0.0 0.0 0.00 0.00 0.00 62 1012.2
20260510074528 16 0 0.0 3.2 0.00 0.00 0.00 62 1012.3
20260510073032 17 0 0.0 3.2 0.00 0.00 0.00 61 1012.3
20260510071541 17 154 1.6 3.2 0.00 0.00 0.00 60 1012.3
20260510070031 17 0 0.0 0.0 0.00 0.00 0.00 59 1012.3
20260510064530 17 0 0.0 0.0 0.00 0.00 0.00 59 1012.2
20260510063030 17 0 0.0 0.0 0.00 0.00 0.00 59 1012.4
20260510061530 17 0 0.0 0.0 0.00 0.00 0.00 58 1012.7
20260510060033 17 0 0.0 0.0 0.00 0.00 0.00 57 1012.5
20260510054527 17 0 0.0 0.0 0.00 0.00 0.00 56 1012.5
20260510053052 17 0 0.0 0.0 0.00 0.00 0.00 56 1012.5
20260510051538 18 0 0.0 0.0 0.00 0.00 0.00 55 1012.4
20260510050030 18 0 0.0 0.0 0.00 0.00 0.00 55 1012.2
20260510044531 18 0 0.0 0.0 0.00 0.00 0.00 54 1012.0
20260510043039 19 0 0.0 3.2 0.00 0.00 0.00 54 1012.0
20260510041530 20 154 1.6 3.2 0.00 0.00 0.00 53 1012.0
20260510040029 20 154 1.6 4.8 0.00 0.00 0.00 52 1012.0
20260510034530 20 163 3.2 8.0 0.00 0.00 0.00 51 1011.8
20260510033029 20 167 3.2 8.0 0.00 0.00 0.00 50 1011.8
20260510031530 21 148 3.2 9.7 0.00 0.00 0.00 49 1011.8
20260510030027 21 143 4.8 9.7 0.00 0.00 0.00 48 1011.8
20260510024530 21 167 6.4 9.7 0.00 0.00 0.00 47 1011.6
20260510023031 21 148 3.2 4.8 0.00 0.00 0.00 45 1011.5
20260510021531 21 141 3.2 4.8 0.00 0.00 0.00 44 1011.3
20260510020030 22 136 1.6 4.8 0.00 0.00 0.00 43 1011.0
20260510014531 22 155 1.6 4.8 0.00 0.00 0.00 42 1010.8
20260510013030 23 134 3.2 6.4 0.00 0.00 0.00 41 1010.7
20260510011537 23 159 3.2 6.4 0.00 0.00 0.00 40 1010.6
20260510010037 25 130 3.2 9.7 0.00 0.00 0.00 39 1010.6
20260510004529 25 148 6.4 11.3 0.00 0.00 0.00 39 1010.4
20260510003029 26 165 6.4 12.9 0.00 0.00 0.00 39 1010.1
20260510001528 26 153 8.0 14.5 0.00 0.00 0.00 38 1010.1
20260510000028 27 156 11.3 16.1 0.00 0.00 0.00 38 1010.0
20260509234528 27 155 9.7 12.9 0.00 0.00 0.00 39 1009.8
20260509233028 27 160 9.7 14.5 0.00 0.00 0.00 39 1009.8
20260509231532 27 159 6.4 14.5 0.00 0.00 0.00 40 1009.7
20260509230028 27 183 6.4 14.5 0.00 0.00 0.00 41 1009.6
20260509224529 27 146 4.8 16.1 0.00 0.00 0.00 42 1009.6
20260509223030 27 131 4.8 12.9 0.00 0.00 0.00 43 1009.5
20260509221539 27 150 8.0 14.5 0.00 0.00 0.00 44 1009.5
20260509220029 27 148 8.0 16.1 0.00 0.00 0.00 45 1009.5
20260509214530 27 169 6.4 16.1 0.00 0.00 0.00 47 1009.6
20260509213028 27 127 9.7 19.3 0.00 0.00 0.00 48 1009.7
20260509211530 27 87 6.4 12.9 0.00 0.00 0.00 49 1009.7
20260509210030 27 238 1.6 11.3 0.00 0.00 0.00 51 1010.0